Location: Diati
(11.8376°N, 2.5966°E)
Time: 17:37:02
(UTC+00:00)

Cosmos 923 Rocket - Pass Details

Date: 21 September 2020
Orbit: 759 x 784 km, 74.0° (Epoch: 19 October)

Event Time Altitude Azimuth Distance (km) Brightness Sun altitude
Rises 18:00:59 0° 355° (N) 3,208 7.3 -4.5°
Reaches altitude 10° 18:03:25 10° 0° (N) 2,282 6.5 -5.1°
Maximum altitude 18:08:26 52° 76° (ENE) 941 4.1 -6.3°
Drops below altitude 10° 18:13:27 10° 152° (SSE) 2,283 6.2 -7.5°
Sets 18:15:52 0° 157° (SSE) 3,210 7.0 -8.1°
